PulseSat

PulseSat

GSAT0104 (PRN E20)

Last updated on March 25, 2019, 3:11 a.m. UTC

1 38858U 12055B   19082.25917872 -.00000006  00000-0  00000-0 0  9993
2 38858  54.9242 174.2376 0002430 259.4243 100.5831  1.70473619 40109
UTC
Height (km)
Latitude
Longitude
Inclination
Orbital Period

Next 30 passes for location: Hong Kong

Rise time Rise Azimuth (degrees) Set time Set Azimuth (degrees) Duration Max altitude (degrees)

No matching passes for this satellites

PulseSat

PulseSat is the new satellites software and hardware trackering solution by Pulsely.
Satellite Two Line Element Set source: US Air Force Space Command

Download PulseSat for iOS
© 2017 Pulsely Limited